Time,TemperatureF,DewpointF,PressureIn,WindDirection,WindDirectionDegrees,WindSpeedMPH,WindSpeedGustMPH,Humidity,HourlyPrecipIn,Conditions,Clouds,dailyrainin,SoftwareType,DateUTC
2013-06-14 00:00:00,82.4,78.1,29.95,SSE,151,7.7,13.4,87,0.00,CLR,,0.00,WeatherDisplay:10.37,2013-06-14 05:00:00,
2013-06-14 00:05:00,82.5,78.6,29.95,SSE,152,9.0,13.8,88,0.00,CLR,,0.00,WeatherDisplay:10.37,2013-06-14 05:05:00,
2013-06-14 00:10:00,82.2,78.3,29.95,SSE,147,10.6,16.5,88,0.00,CLR,,0.00,WeatherDisplay:10.37,2013-06-14 05:10:00,
2013-06-14 00:15:00,82.3,78.7,29.95,SSE,157,8.7,16.5,89,0.00,CLR,,0.00,WeatherDisplay:10.37,2013-06-14 05:15:00,
2013-06-14 00:20:00,82.3,78.7,29.95,SE,143,9.9,15.0,89,0.00,CLR,,0.00,WeatherDisplay:10.37,2013-06-14 05:20:00,
2013-06-14 00:25:00,82.1,78.5,29.94,South,169,9.4,16.1,89,0.00,CLR,,0.00,WeatherDisplay:10.37,2013-06-14 05:25:00,
2013-06-14 00:30:00,82.1,78.5,29.94,SE,138,9.7,17.3,89,0.00,CLR,,0.00,WeatherDisplay:10.37,2013-06-14 05:30:00,
2013-06-14 00:35:00,82.3,79.1,29.94,SE,130,8.0,13.8,90,0.00,CLR,,0.00,WeatherDisplay:10.37,2013-06-14 05:35:00,
2013-06-14 00:40:00,82.3,79.1,29.94,SSE,164,10.0,15.4,90,0.00,CLR,,0.00,WeatherDisplay:10.37,2013-06-14 05:40:00,
2013-06-14 00:45:00,82.3,79.1,29.94,SE,144,9.8,15.0,90,0.00,CLR,,0.00,WeatherDisplay:10.37,2013-06-14 05:45:00,
2013-06-14 00:50:00,82.0,78.8,29.94,ESE,117,8.7,11.5,90,0.00,CLR,,0.00,WeatherDisplay:10.37,2013-06-14 05:50:00,
2013-06-14 00:55:00,82.1,78.9,29.94,South,178,9.4,12.7,90,0.00,CLR,,0.00,WeatherDisplay:10.37,2013-06-14 05:55:00,
2013-06-14 01:00:00,82.1,78.9,29.94,SE,128,9.0,14.2,90,0.00,CLR,,0.00,WeatherDisplay:10.37,2013-06-14 06:00:00,
2013-06-14 01:05:00,82.2,79.0,29.94,SE,138,8.2,14.2,90,0.00,CLR,,0.00,WeatherDisplay:10.37,2013-06-14 06:05:00,
2013-06-14 01:10:00,82.1,78.9,29.94,SSE,147,10.2,14.1,90,0.00,CLR,,0.00,WeatherDisplay:10.37,2013-06-14 06:10:00,
2013-06-14 01:15:00,82.1,78.9,29.94,SSE,168,8.3,15.0,90,0.00,CLR,,0.00,WeatherDisplay:10.37,2013-06-14 06:15:00,
2013-06-14 01:20:00,82.2,79.0,29.94,South,171,7.4,12.7,90,0.00,CLR,,0.00,WeatherDisplay:10.37,2013-06-14 06:20:00,
2013-06-14 01:25:00,82.2,79.0,29.93,SSE,147,8.6,14.0,90,0.00,CLR,,0.00,WeatherDisplay:10.37,2013-06-14 06:25:00,
2013-06-14 01:30:00,82.0,78.8,29.93,ESE,110,8.4,16.1,90,0.00,CLR,,0.00,WeatherDisplay:10.37,2013-06-14 06:30:00,
2013-06-14 01:35:00,82.0,78.8,29.93,SE,133,6.8,13.8,90,0.00,CLR,,0.00,WeatherDisplay:10.37,2013-06-14 06:35:00,
2013-06-14 01:40:00,82.1,78.9,29.93,SE,127,8.1,14.4,90,0.00,CLR,,0.00,WeatherDisplay:10.37,2013-06-14 06:40:00,
2013-06-14 01:45:00,82.1,78.9,29.93,SSE,148,8.4,12.7,90,0.00,CLR,,0.00,WeatherDisplay:10.37,2013-06-14 06:45:00,
2013-06-14 01:50:00,82.1,78.5,29.93,SSE,155,8.9,16.1,89,0.00,CLR,,0.00,WeatherDisplay:10.37,2013-06-14 06:50:00,
2013-06-14 01:55:00,82.1,78.9,29.93,SE,144,7.8,15.0,90,0.00,CLR,,0.00,WeatherDisplay:10.37,2013-06-14 06:55:00,
2013-06-14 02:00:00,82.1,78.9,29.93,SE,141,10.0,15.0,90,0.00,CLR,,0.00,WeatherDisplay:10.37,2013-06-14 07:00:00,
2013-06-14 02:05:00,82.0,78.8,29.93,East,100,10.0,12.7,90,0.00,CLR,,0.00,WeatherDisplay:10.37,2013-06-14 07:05:00,
2013-06-14 02:10:00,82.2,79.0,29.93,SE,145,9.0,13.2,90,0.00,CLR,,0.00,WeatherDisplay:10.37,2013-06-14 07:10:00,
2013-06-14 02:15:00,81.9,78.3,29.93,SE,128,10.1,15.0,89,0.00,CLR,,0.00,WeatherDisplay:10.37,2013-06-14 07:15:00,
2013-06-14 02:20:00,82.0,78.4,29.93,South,171,8.9,15.0,89,0.00,CLR,,0.00,WeatherDisplay:10.37,2013-06-14 07:20:00,
2013-06-14 02:25:00,82.2,78.6,29.93,SSE,154,11.5,15.0,89,0.00,CLR,,0.00,WeatherDisplay:10.37,2013-06-14 07:25:00,
2013-06-14 02:30:00,82.2,79.0,29.93,SE,133,11.1,17.3,90,0.00,CLR,,0.00,WeatherDisplay:10.37,2013-06-14 07:30:00,
2013-06-14 02:35:00,82.2,79.0,29.93,ESE,109,9.0,13.8,90,0.00,CLR,,0.00,WeatherDisplay:10.37,2013-06-14 07:35:00,
2013-06-14 02:40:00,82.0,78.8,29.93,ESE,120,8.4,13.3,90,0.00,CLR,,0.00,WeatherDisplay:10.37,2013-06-14 07:40:00,
2013-06-14 02:45:00,82.0,78.8,29.93,SE,128,11.1,16.1,90,0.00,CLR,,0.00,WeatherDisplay:10.37,2013-06-14 07:45:00,
2013-06-14 02:50:00,82.0,78.8,29.93,SSE,154,9.6,12.7,90,0.00,CLR,,0.00,WeatherDisplay:10.37,2013-06-14 07:50:00,
2013-06-14 02:55:00,81.8,78.2,29.93,SE,127,8.3,15.0,89,0.00,CLR,,0.00,WeatherDisplay:10.37,2013-06-14 07:55:00,
2013-06-14 03:00:00,81.9,78.3,29.92,SE,137,9.6,13.8,89,0.00,CLR,,0.00,WeatherDisplay:10.37,2013-06-14 08:00:00,
2013-06-14 03:05:00,81.8,78.2,29.92,SE,130,8.3,12.7,89,0.00,CLR,,0.00,WeatherDisplay:10.37,2013-06-14 08:05:00,
2013-06-14 03:10:00,81.8,78.2,29.92,SE,128,6.6,13.8,89,0.00,CLR,,0.00,WeatherDisplay:10.37,2013-06-14 08:10:00,
2013-06-14 03:15:00,81.8,78.2,29.92,SE,145,5.7,13.8,89,0.00,CLR,,0.00,WeatherDisplay:10.37,2013-06-14 08:15:00,
2013-06-14 03:20:00,81.8,78.2,29.92,SE,130,6.8,13.8,89,0.00,CLR,,0.00,WeatherDisplay:10.37,2013-06-14 08:20:00,
2013-06-14 03:25:00,81.7,78.1,29.92,SE,128,9.4,13.8,89,0.00,CLR,,0.00,WeatherDisplay:10.37,2013-06-14 08:25:00,
2013-06-14 03:30:00,81.7,78.1,29.92,SE,138,6.1,12.7,89,0.00,CLR,,0.00,WeatherDisplay:10.37,2013-06-14 08:30:00,
2013-06-14 03:35:00,81.8,78.2,29.92,SSE,151,7.9,12.7,89,0.00,CLR,,0.00,WeatherDisplay:10.37,2013-06-14 08:35:00,
2013-06-14 03:40:00,81.8,78.2,29.91,SE,134,7.4,12.7,89,0.00,CLR,,0.00,WeatherDisplay:10.37,2013-06-14 08:40:00,
2013-06-14 03:45:00,81.8,78.2,29.91,SSE,150,8.5,10.4,89,0.00,CLR,,0.00,WeatherDisplay:10.37,2013-06-14 08:45:00,
2013-06-14 03:50:00,81.9,78.3,29.92,SE,124,8.6,11.5,89,0.00,CLR,,0.00,WeatherDisplay:10.37,2013-06-14 08:50:00,
2013-06-14 03:55:00,82.0,78.4,29.92,SSE,148,7.9,11.5,89,0.00,CLR,,0.00,WeatherDisplay:10.37,2013-06-14 08:55:00,
2013-06-14 04:00:00,81.8,78.2,29.92,SSE,148,9.8,12.7,89,0.00,CLR,,0.00,WeatherDisplay:10.37,2013-06-14 09:00:00,
2013-06-14 04:05:00,81.9,78.3,29.92,SE,141,9.4,15.5,89,0.00,CLR,,0.00,WeatherDisplay:10.37,2013-06-14 09:05:00,
2013-06-14 04:10:00,81.9,78.3,29.92,South,169,7.3,10.5,89,0.00,CLR,,0.00,WeatherDisplay:10.37,2013-06-14 09:10:00,
2013-06-14 04:15:00,81.8,78.2,29.92,ESE,117,7.2,11.5,89,0.00,CLR,,0.00,WeatherDisplay:10.37,2013-06-14 09:15:00,
2013-06-14 04:20:00,81.8,78.2,29.92,SE,128,7.1,12.7,89,0.00,CLR,,0.00,WeatherDisplay:10.37,2013-06-14 09:20:00,
2013-06-14 04:25:00,81.8,78.2,29.92,East,89,8.0,15.0,89,0.00,CLR,,0.00,WeatherDisplay:10.37,2013-06-14 09:25:00,
2013-06-14 04:30:00,82.0,78.8,29.92,SE,124,7.8,12.8,90,0.00,CLR,,0.00,WeatherDisplay:10.37,2013-06-14 09:30:00,
2013-06-14 04:35:00,82.1,78.9,29.92,ESE,120,8.5,12.6,90,0.00,CLR,,0.00,WeatherDisplay:10.37,2013-06-14 09:35:00,
2013-06-14 04:41:00,82.1,78.9,29.92,SE,136,9.8,13.8,90,0.00,CLR,,0.00,WeatherDisplay:10.37,2013-06-14 09:41:00,
2013-06-14 04:46:00,81.8,78.6,29.92,ESE,113,7.9,11.5,90,0.00,CLR,,0.00,WeatherDisplay:10.37,2013-06-14 09:46:00,
2013-06-14 04:51:00,81.8,78.6,29.92,South,169,7.7,11.5,90,0.00,CLR,,0.00,WeatherDisplay:10.37,2013-06-14 09:51:00,
2013-06-14 04:56:00,81.6,78.4,29.92,SE,143,7.8,11.5,90,0.00,CLR,,0.00,WeatherDisplay:10.37,2013-06-14 09:56:00,
2013-06-14 05:01:00,81.8,78.6,29.91,SSE,162,9.1,16.4,90,0.00,CLR,,0.00,WeatherDisplay:10.37,2013-06-14 10:01:00,
2013-06-14 05:06:00,81.6,78.4,29.91,SE,131,9.4,15.0,90,0.00,CLR,,0.00,WeatherDisplay:10.37,2013-06-14 10:06:00,
2013-06-14 05:11:00,81.7,78.5,29.92,SSE,147,8.9,15.0,90,0.00,CLR,,0.00,WeatherDisplay:10.37,2013-06-14 10:11:00,
2013-06-14 05:16:00,81.7,78.5,29.92,ESE,119,9.3,15.0,90,0.00,CLR,,0.00,WeatherDisplay:10.37,2013-06-14 10:16:00,
2013-06-14 05:21:00,81.7,78.1,29.92,SSE,154,10.7,14.6,89,0.00,CLR,,0.00,WeatherDisplay:10.37,2013-06-14 10:21:00,
2013-06-14 05:26:00,81.6,78.0,29.92,SE,124,9.8,15.4,89,0.00,CLR,,0.00,WeatherDisplay:10.37,2013-06-14 10:26:00,
2013-06-14 05:31:00,81.7,78.1,29.93,SE,130,10.3,16.1,89,0.00,CLR,,0.00,WeatherDisplay:10.37,2013-06-14 10:31:00,
2013-06-14 05:36:00,81.7,78.1,29.93,SE,130,9.2,16.0,89,0.00,CLR,,0.00,WeatherDisplay:10.37,2013-06-14 10:36:00,
2013-06-14 05:41:00,81.7,78.1,29.93,SE,136,10.1,16.1,89,0.00,CLR,,0.00,WeatherDisplay:10.37,2013-06-14 10:41:00,
2013-06-14 05:46:00,81.7,77.8,29.93,SE,145,10.8,15.0,88,0.00,CLR,,0.00,WeatherDisplay:10.37,2013-06-14 10:46:00,
2013-06-14 05:51:00,81.8,77.9,29.93,SSE,157,10.5,15.2,88,0.00,CLR,,0.00,WeatherDisplay:10.37,2013-06-14 10:51:00,
2013-06-14 05:56:00,81.9,78.3,29.93,SSE,162,8.8,13.9,89,0.00,CLR,,0.00,WeatherDisplay:10.37,2013-06-14 10:56:00,
2013-06-14 06:01:00,81.9,78.7,29.93,SE,137,8.6,12.7,90,0.00,CLR,,0.00,WeatherDisplay:10.37,2013-06-14 11:01:00,
2013-06-14 06:06:00,81.9,78.7,29.94,ESE,121,8.7,12.7,90,0.00,CLR,,0.00,WeatherDisplay:10.37,2013-06-14 11:06:00,
2013-06-14 06:11:00,81.8,78.6,29.94,SSE,152,9.0,12.7,90,0.00,CLR,,0.00,WeatherDisplay:10.37,2013-06-14 11:11:00,
2013-06-14 06:16:00,81.6,78.4,29.94,South,171,10.4,15.0,90,0.00,CLR,,0.00,WeatherDisplay:10.37,2013-06-14 11:16:00,
2013-06-14 06:21:00,81.5,78.3,29.94,South,188,5.3,14.1,90,0.00,CLR,,0.00,WeatherDisplay:10.37,2013-06-14 11:21:00,
2013-06-14 06:26:00,81.5,77.9,29.94,SSE,158,7.8,11.5,89,0.00,CLR,,0.00,WeatherDisplay:10.37,2013-06-14 11:26:00,
2013-06-14 06:31:00,81.6,78.4,29.94,SSE,158,8.6,11.5,90,0.00,CLR,,0.00,WeatherDisplay:10.37,2013-06-14 11:31:00,
2013-06-14 06:36:00,81.7,78.5,29.94,SE,145,7.3,14.2,90,0.00,CLR,,0.00,WeatherDisplay:10.37,2013-06-14 11:36:00,
2013-06-14 06:41:00,81.6,78.4,29.94,SSE,154,6.9,12.7,90,0.00,CLR,,0.00,WeatherDisplay:10.37,2013-06-14 11:41:00,
2013-06-14 06:46:00,81.5,77.6,29.94,SSE,158,7.7,15.0,88,0.00,CLR,,0.00,WeatherDisplay:10.37,2013-06-14 11:46:00,
2013-06-14 06:51:00,81.6,77.7,29.94,ESE,123,6.9,15.0,88,0.00,CLR,,0.00,WeatherDisplay:10.37,2013-06-14 11:51:00,
2013-06-14 06:56:00,81.7,77.8,29.95,SE,124,6.4,12.7,88,0.00,CLR,,0.00,WeatherDisplay:10.37,2013-06-14 11:56:00,
2013-06-14 07:01:00,81.6,77.7,29.95,ESE,103,7.1,11.5,88,0.00,CLR,,0.00,WeatherDisplay:10.37,2013-06-14 12:01:00,
2013-06-14 07:06:00,81.6,77.7,29.95,ESE,103,5.9,11.5,88,0.00,CLR,,0.00,WeatherDisplay:10.37,2013-06-14 12:06:00,
2013-06-14 07:11:00,81.9,78.0,29.95,SE,137,7.9,11.9,88,0.00,CLR,,0.00,WeatherDisplay:10.37,2013-06-14 12:11:00,
2013-06-14 07:16:00,81.7,77.5,29.95,SE,138,8.7,13.1,87,0.00,CLR,,0.00,WeatherDisplay:10.37,2013-06-14 12:16:00,
2013-06-14 07:21:00,81.8,77.5,29.95,East,89,7.4,11.5,87,0.00,CLR,,0.00,WeatherDisplay:10.37,2013-06-14 12:21:00,
2013-06-14 07:26:00,81.9,77.6,29.95,SE,131,6.9,10.4,87,0.00,CLR,,0.00,WeatherDisplay:10.37,2013-06-14 12:26:00,
2013-06-14 07:32:00,81.9,77.3,29.95,SSE,154,8.5,13.8,86,0.00,CLR,,0.00,WeatherDisplay:10.37,2013-06-14 12:32:00,
2013-06-14 07:37:00,81.9,77.3,29.95,SE,133,8.3,11.5,86,0.00,CLR,,0.00,WeatherDisplay:10.37,2013-06-14 12:37:00,
2013-06-14 07:42:00,81.8,76.8,29.95,SSE,165,8.8,11.5,85,0.00,CLR,,0.00,WeatherDisplay:10.37,2013-06-14 12:42:00,
2013-06-14 07:47:00,81.9,76.9,29.95,ESE,106,9.4,15.0,85,0.00,CLR,,0.00,WeatherDisplay:10.37,2013-06-14 12:47:00,
2013-06-14 07:52:00,81.9,76.6,29.96,SSE,148,10.7,15.2,84,0.00,CLR,,0.00,WeatherDisplay:10.37,2013-06-14 12:52:00,
2013-06-14 07:57:00,82.0,77.0,29.96,SSE,158,8.9,12.7,85,0.00,CLR,,0.00,WeatherDisplay:10.37,2013-06-14 12:57:00,
2013-06-14 08:02:00,82.1,76.8,29.96,SE,137,9.1,12.3,84,0.00,CLR,,0.00,WeatherDisplay:10.37,2013-06-14 13:02:00,
2013-06-14 08:07:00,82.0,76.7,29.97,SSE,151,9.3,12.7,84,0.00,CLR,,0.00,WeatherDisplay:10.37,2013-06-14 13:07:00,
2013-06-14 08:12:00,82.2,77.2,29.97,SE,141,8.0,13.8,85,0.00,CLR,,0.00,WeatherDisplay:10.37,2013-06-14 13:12:00,
2013-06-14 08:17:00,82.2,77.2,29.97,SE,138,8.8,12.4,85,0.00,CLR,,0.00,WeatherDisplay:10.37,2013-06-14 13:17:00,
2013-06-14 08:22:00,82.3,77.3,29.97,SE,143,9.6,11.5,85,0.00,CLR,,0.00,WeatherDisplay:10.37,2013-06-14 13:22:00,
2013-06-14 08:27:00,82.4,77.4,29.97,SE,141,7.5,12.7,85,0.00,CLR,,0.00,WeatherDisplay:10.37,2013-06-14 13:27:00,
2013-06-14 08:32:00,82.4,77.4,29.98,SE,137,7.3,10.4,85,0.00,CLR,,0.00,WeatherDisplay:10.37,2013-06-14 13:32:00,
2013-06-14 08:37:00,82.5,77.5,29.98,SE,140,7.7,10.4,85,0.00,CLR,,0.00,WeatherDisplay:10.37,2013-06-14 13:37:00,
2013-06-14 08:42:00,82.5,77.9,29.98,SE,124,7.0,14.4,86,0.00,CLR,,0.00,WeatherDisplay:10.37,2013-06-14 13:42:00,
2013-06-14 08:47:00,82.5,77.5,29.98,SSE,155,8.5,12.7,85,0.00,CLR,,0.00,WeatherDisplay:10.37,2013-06-14 13:47:00,
2013-06-14 08:52:00,82.7,77.7,29.98,SE,141,6.8,10.4,85,0.00,CLR,,0.00,WeatherDisplay:10.37,2013-06-14 13:52:00,
2013-06-14 08:57:00,82.9,77.9,29.98,East,90,7.8,11.5,85,0.00,CLR,,0.00,WeatherDisplay:10.37,2013-06-14 13:57:00,
2013-06-14 09:02:00,83.0,78.0,29.99,ESE,113,9.2,13.8,85,0.00,CLR,,0.00,WeatherDisplay:10.37,2013-06-14 14:02:00,
2013-06-14 09:08:00,83.0,78.0,29.99,ESE,114,7.5,12.7,85,0.00,CLR,,0.00,WeatherDisplay:10.37,2013-06-14 14:08:00,
2013-06-14 09:13:00,82.9,78.3,29.99,SE,137,6.9,9.7,86,0.00,CLR,,0.00,WeatherDisplay:10.37,2013-06-14 14:13:00,
2013-06-14 09:18:00,82.9,78.3,29.99,ESE,116,7.9,11.5,86,0.00,CLR,,0.00,WeatherDisplay:10.37,2013-06-14 14:18:00,
2013-06-14 09:23:00,82.7,77.7,29.99,ESE,107,7.7,11.6,85,0.00,CLR,,0.00,WeatherDisplay:10.37,2013-06-14 14:23:00,
2013-06-14 09:28:00,82.7,78.1,29.99,SE,143,6.9,11.5,86,0.00,CLR,,0.00,WeatherDisplay:10.37,2013-06-14 14:28:00,
2013-06-14 09:33:00,82.8,78.2,29.99,ESE,107,7.8,11.9,86,0.00,CLR,,0.00,WeatherDisplay:10.37,2013-06-14 14:33:00,
2013-06-14 09:38:00,82.8,78.2,29.99,SE,130,8.7,12.2,86,0.00,CLR,,0.00,WeatherDisplay:10.37,2013-06-14 14:38:00,
2013-06-14 09:43:00,82.8,78.2,29.98,ESE,114,7.6,12.7,86,0.00,CLR,,0.00,WeatherDisplay:10.37,2013-06-14 14:43:00,
2013-06-14 09:48:00,82.8,78.2,29.98,ESE,116,7.0,13.8,86,0.00,CLR,,0.00,WeatherDisplay:10.37,2013-06-14 14:48:00,
2013-06-14 09:53:00,82.8,78.2,29.98,SE,131,6.8,9.2,86,0.00,CLR,,0.00,WeatherDisplay:10.37,2013-06-14 14:53:00,
2013-06-14 09:58:00,82.7,78.1,29.98,ESE,120,7.6,12.7,86,0.00,CLR,,0.00,WeatherDisplay:10.37,2013-06-14 14:58:00,
2013-06-14 10:03:00,82.9,78.6,29.98,ESE,123,8.9,13.2,87,0.00,CLR,,0.00,WeatherDisplay:10.37,2013-06-14 15:03:00,
2013-06-14 10:08:00,82.8,78.5,29.98,SE,134,6.3,10.4,87,0.00,CLR,,0.00,WeatherDisplay:10.37,2013-06-14 15:08:00,
2013-06-14 10:13:00,82.8,78.9,29.98,ESE,103,5.6,11.5,88,0.00,CLR,,0.00,WeatherDisplay:10.37,2013-06-14 15:13:00,
2013-06-14 10:18:00,82.7,78.8,29.98,ESE,113,8.1,12.7,88,0.00,CLR,,0.00,WeatherDisplay:10.37,2013-06-14 15:18:00,
2013-06-14 10:23:00,82.6,78.7,29.98,SE,131,7.9,11.5,88,0.00,CLR,,0.00,WeatherDisplay:10.37,2013-06-14 15:23:00,
2013-06-14 10:28:00,82.8,78.5,29.98,ESE,116,8.1,12.7,87,0.00,CLR,,0.00,WeatherDisplay:10.37,2013-06-14 15:28:00,
2013-06-14 10:33:00,82.8,78.2,29.98,SE,141,8.4,16.1,86,0.00,CLR,,0.00,WeatherDisplay:10.37,2013-06-14 15:33:00,
2013-06-14 10:38:00,83.1,78.1,29.97,SE,137,9.0,14.2,85,0.00,CLR,,0.00,WeatherDisplay:10.37,2013-06-14 15:38:00,
2013-06-14 10:43:00,83.4,78.4,29.97,ESE,121,8.4,13.8,85,0.00,CLR,,0.00,WeatherDisplay:10.37,2013-06-14 15:43:00,
2013-06-14 10:48:00,83.6,78.6,29.97,SE,124,8.7,12.7,85,0.00,CLR,,0.00,WeatherDisplay:10.37,2013-06-14 15:48:00,
2013-06-14 10:53:00,83.7,78.0,29.97,South,171,8.3,11.5,83,0.00,CLR,,0.00,WeatherDisplay:10.37,2013-06-14 15:53:00,
2013-06-14 10:58:00,83.9,78.2,29.96,SE,140,9.2,16.1,83,0.00,CLR,,0.00,WeatherDisplay:10.37,2013-06-14 15:58:00,
2013-06-14 11:03:00,83.9,78.2,29.96,SE,131,9.8,14.4,83,0.00,CLR,,0.00,WeatherDisplay:10.37,2013-06-14 16:03:00,
2013-06-14 11:08:00,83.8,77.7,29.96,SSE,148,10.7,15.0,82,0.00,CLR,,0.00,WeatherDisplay:10.37,2013-06-14 16:08:00,
2013-06-14 11:13:00,83.7,77.6,29.96,SSE,151,8.7,12.7,82,0.00,CLR,,0.00,WeatherDisplay:10.37,2013-06-14 16:13:00,
2013-06-14 11:18:00,83.8,78.1,29.96,SSE,161,7.8,12.7,83,0.00,CLR,,0.00,WeatherDisplay:10.37,2013-06-14 16:18:00,
2013-06-14 11:23:00,83.9,77.8,29.96,ESE,116,8.6,15.2,82,0.00,CLR,,0.00,WeatherDisplay:10.37,2013-06-14 16:23:00,
2013-06-14 11:28:00,83.9,77.8,29.96,ESE,117,9.3,15.0,82,0.00,CLR,,0.00,WeatherDisplay:10.37,2013-06-14 16:28:00,
2013-06-14 11:33:00,84.0,77.5,29.95,SSE,158,9.6,13.8,81,0.00,CLR,,0.00,WeatherDisplay:10.37,2013-06-14 16:33:00,
2013-06-14 11:38:00,84.1,78.0,29.96,SSE,151,7.5,10.4,82,0.00,CLR,,0.00,WeatherDisplay:10.37,2013-06-14 16:38:00,
2013-06-14 11:43:00,83.9,78.2,29.96,SE,141,7.8,13.7,83,0.00,CLR,,0.00,WeatherDisplay:10.37,2013-06-14 16:43:00,
2013-06-14 11:48:00,83.8,77.7,29.95,SE,136,7.3,15.0,82,0.00,CLR,,0.00,WeatherDisplay:10.37,2013-06-14 16:48:00,
2013-06-14 11:53:00,84.0,78.3,29.95,SSE,151,7.4,9.2,83,0.00,CLR,,0.00,WeatherDisplay:10.37,2013-06-14 16:53:00,
2013-06-14 11:58:00,84.1,78.4,29.95,SSE,157,7.6,15.0,83,0.00,CLR,,0.00,WeatherDisplay:10.37,2013-06-14 16:58:00,
2013-06-14 12:03:00,83.9,77.8,29.95,SSE,157,9.0,12.7,82,0.00,CLR,,0.00,WeatherDisplay:10.37,2013-06-14 17:03:00,
2013-06-14 12:08:00,84.1,78.0,29.95,SSE,158,6.5,11.5,82,0.00,CLR,,0.00,WeatherDisplay:10.37,2013-06-14 17:08:00,
2013-06-14 12:13:00,84.3,78.2,29.95,ESE,117,7.9,11.5,82,0.00,CLR,,0.00,WeatherDisplay:10.37,2013-06-14 17:13:00,
2013-06-14 12:18:00,84.1,78.0,29.94,SSE,155,8.2,11.5,82,0.00,CLR,,0.00,WeatherDisplay:10.37,2013-06-14 17:18:00,
2013-06-14 12:23:00,84.5,78.0,29.94,SSE,151,7.1,12.7,81,0.00,CLR,,0.00,WeatherDisplay:10.37,2013-06-14 17:23:00,
2013-06-14 12:28:00,85.0,78.5,29.94,SE,133,6.8,10.4,81,0.00,CLR,,0.00,WeatherDisplay:10.37,2013-06-14 17:28:00,
2013-06-14 12:33:00,85.4,77.8,29.94,East,95,8.2,12.7,78,0.00,CLR,,0.00,WeatherDisplay:10.37,2013-06-14 17:33:00,
2013-06-14 12:38:00,85.8,77.8,29.94,ESE,112,7.6,11.5,77,0.00,CLR,,0.00,WeatherDisplay:10.37,2013-06-14 17:38:00,
2013-06-14 12:43:00,86.0,77.5,29.94,SE,134,6.6,9.2,76,0.00,CLR,,0.00,WeatherDisplay:10.37,2013-06-14 17:43:00,
2013-06-14 12:48:00,86.3,77.8,29.94,ESE,116,7.8,12.7,76,0.00,CLR,,0.00,WeatherDisplay:10.37,2013-06-14 17:48:00,
2013-06-14 12:53:00,86.6,76.9,29.94,SSE,157,7.8,11.9,73,0.00,CLR,,0.00,WeatherDisplay:10.37,2013-06-14 17:53:00,
2013-06-14 12:58:00,86.8,77.1,29.94,ESE,103,8.7,13.8,73,0.00,CLR,,0.00,WeatherDisplay:10.37,2013-06-14 17:58:00,
2013-06-14 13:03:00,86.6,77.3,29.94,SSE,154,8.3,11.3,74,0.00,CLR,,0.00,WeatherDisplay:10.37,2013-06-14 18:03:00,
2013-06-14 13:08:00,86.4,77.1,29.94,ESE,123,6.9,13.8,74,0.00,CLR,,0.00,WeatherDisplay:10.37,2013-06-14 18:08:00,
2013-06-14 13:13:00,86.3,77.4,29.94,SSE,162,7.1,12.9,75,0.00,CLR,,0.00,WeatherDisplay:10.37,2013-06-14 18:13:00,
2013-06-14 13:18:00,86.3,77.8,29.94,SSE,160,7.0,11.5,76,0.00,CLR,,0.00,WeatherDisplay:10.37,2013-06-14 18:18:00,
2013-06-14 13:23:00,86.2,77.7,29.94,SE,131,6.7,12.7,76,0.00,CLR,,0.00,WeatherDisplay:10.37,2013-06-14 18:23:00,
2013-06-14 13:28:00,86.3,77.4,29.94,SE,128,6.4,12.7,75,0.00,CLR,,0.00,WeatherDisplay:10.37,2013-06-14 18:28:00,
2013-06-14 13:33:00,86.6,77.7,29.94,ESE,116,6.2,10.4,75,0.00,CLR,,0.00,WeatherDisplay:10.37,2013-06-14 18:33:00,
2013-06-14 13:38:00,86.9,77.6,29.93,ESE,104,9.7,12.4,74,0.00,CLR,,0.00,WeatherDisplay:10.37,2013-06-14 18:38:00,
2013-06-14 13:44:00,87.4,77.3,29.94,ESE,104,7.2,10.4,72,0.00,CLR,,0.00,WeatherDisplay:10.37,2013-06-14 18:44:00,
2013-06-14 13:49:00,87.3,77.6,29.94,SE,124,6.0,8.1,73,0.00,CLR,,0.00,WeatherDisplay:10.37,2013-06-14 18:49:00,
2013-06-14 13:54:00,87.1,77.0,29.94,SE,134,10.2,12.9,72,0.00,CLR,,0.00,WeatherDisplay:10.37,2013-06-14 18:54:00,
2013-06-14 13:59:00,87.2,77.1,29.94,SE,133,7.4,11.9,72,0.00,CLR,,0.00,WeatherDisplay:10.37,2013-06-14 18:59:00,
2013-06-14 14:04:00,87.0,77.3,29.93,SE,138,9.2,13.1,73,0.00,CLR,,0.00,WeatherDisplay:10.37,2013-06-14 19:04:00,
2013-06-14 14:09:00,87.0,77.3,29.93,ESE,120,6.2,11.5,73,0.00,CLR,,0.00,WeatherDisplay:10.37,2013-06-14 19:09:00,
2013-06-14 14:14:00,87.2,77.1,29.93,SSE,161,8.6,13.8,72,0.00,CLR,,0.00,WeatherDisplay:10.37,2013-06-14 19:14:00,
2013-06-14 14:19:00,87.1,77.4,29.93,SSE,148,8.6,12.7,73,0.00,CLR,,0.00,WeatherDisplay:10.37,2013-06-14 19:19:00,
2013-06-14 14:24:00,87.3,77.6,29.92,ESE,113,6.7,12.7,73,0.00,CLR,,0.00,WeatherDisplay:10.37,2013-06-14 19:24:00,
2013-06-14 14:29:00,87.3,77.2,29.92,SE,144,6.4,11.6,72,0.00,CLR,,0.00,WeatherDisplay:10.37,2013-06-14 19:29:00,
2013-06-14 14:34:00,87.7,77.5,29.92,ESE,109,7.1,12.7,72,0.00,CLR,,0.00,WeatherDisplay:10.37,2013-06-14 19:34:00,
2013-06-14 14:39:00,87.8,76.4,29.92,SSE,150,8.3,12.2,69,0.00,CLR,,0.00,WeatherDisplay:10.37,2013-06-14 19:39:00,
2013-06-14 14:44:00,87.9,76.9,29.92,SSE,165,6.5,10.4,70,0.00,CLR,,0.00,WeatherDisplay:10.37,2013-06-14 19:44:00,
2013-06-14 14:49:00,87.9,76.9,29.92,East,88,6.2,11.5,70,0.00,CLR,,0.00,WeatherDisplay:10.37,2013-06-14 19:49:00,
2013-06-14 14:54:00,88.4,76.9,29.92,ESE,121,10.3,14.1,69,0.00,CLR,,0.00,WeatherDisplay:10.37,2013-06-14 19:54:00,
2013-06-14 14:59:00,88.6,76.7,29.92,ESE,104,7.7,13.8,68,0.00,CLR,,0.00,WeatherDisplay:10.37,2013-06-14 19:59:00,
2013-06-14 15:04:00,88.6,76.7,29.92,SE,130,10.1,15.0,68,0.00,CLR,,0.00,WeatherDisplay:10.37,2013-06-14 20:04:00,
2013-06-14 15:09:00,88.5,77.0,29.92,East,83,9.6,14.1,69,0.00,CLR,,0.00,WeatherDisplay:10.37,2013-06-14 20:09:00,
2013-06-14 15:14:00,88.6,77.6,29.91,East,95,6.7,10.4,70,0.00,CLR,,0.00,WeatherDisplay:10.37,2013-06-14 20:14:00,
2013-06-14 15:19:00,88.6,76.7,29.91,ESE,106,10.0,15.0,68,0.00,CLR,,0.00,WeatherDisplay:10.37,2013-06-14 20:19:00,
2013-06-14 15:24:00,88.6,77.1,29.91,ESE,102,10.4,13.8,69,0.00,CLR,,0.00,WeatherDisplay:10.37,2013-06-14 20:24:00,
2013-06-14 15:29:00,88.9,77.0,29.92,East,99,10.4,16.1,68,0.00,CLR,,0.00,WeatherDisplay:10.37,2013-06-14 20:29:00,
2013-06-14 15:34:00,89.1,76.7,29.92,East,99,12.1,15.0,67,0.00,CLR,,0.00,WeatherDisplay:10.37,2013-06-14 20:34:00,
2013-06-14 15:39:00,89.3,76.9,29.91,SE,134,8.6,12.7,67,0.00,CLR,,0.00,WeatherDisplay:10.37,2013-06-14 20:39:00,
2013-06-14 15:44:00,89.2,76.8,29.91,ESE,107,10.2,14.0,67,0.00,CLR,,0.00,WeatherDisplay:10.37,2013-06-14 20:44:00,
2013-06-14 15:49:00,89.0,76.6,29.91,ESE,112,8.9,21.6,67,0.00,CLR,,0.00,WeatherDisplay:10.37,2013-06-14 20:49:00,
2013-06-14 15:54:00,88.8,77.3,29.91,East,100,10.7,15.9,69,0.00,CLR,,0.00,WeatherDisplay:10.37,2013-06-14 20:54:00,
2013-06-14 15:59:00,88.7,77.2,29.91,ENE,78,12.3,17.6,69,0.00,CLR,,0.00,WeatherDisplay:10.37,2013-06-14 20:59:00,
2013-06-14 16:04:00,88.2,76.3,29.91,ESE,102,8.0,13.8,68,0.00,CLR,,0.00,WeatherDisplay:10.37,2013-06-14 21:04:00,
2013-06-14 16:09:00,87.8,76.8,29.90,ESE,112,7.4,13.8,70,0.00,CLR,,0.00,WeatherDisplay:10.37,2013-06-14 21:09:00,
2013-06-14 16:14:00,87.8,77.2,29.90,ESE,119,9.2,13.8,71,0.00,CLR,,0.00,WeatherDisplay:10.37,2013-06-14 21:14:00,
2013-06-14 16:19:00,87.6,77.5,29.90,East,95,8.6,13.8,72,0.00,CLR,,0.00,WeatherDisplay:10.37,2013-06-14 21:19:00,
2013-06-14 16:24:00,87.7,77.1,29.90,ESE,121,7.8,12.7,71,0.00,CLR,,0.00,WeatherDisplay:10.37,2013-06-14 21:24:00,
2013-06-14 16:29:00,87.5,76.9,29.90,ESE,109,10.6,14.2,71,0.00,CLR,,0.00,WeatherDisplay:10.37,2013-06-14 21:29:00,
2013-06-14 16:34:00,87.4,77.3,29.90,SSE,148,9.4,12.7,72,0.00,CLR,,0.00,WeatherDisplay:10.37,2013-06-14 21:34:00,
2013-06-14 16:39:00,87.3,78.0,29.90,East,97,10.0,12.7,74,0.00,CLR,,0.00,WeatherDisplay:10.37,2013-06-14 21:39:00,
2013-06-14 16:44:00,87.0,77.3,29.91,ESE,123,8.1,15.1,73,0.00,CLR,,0.00,WeatherDisplay:10.37,2013-06-14 21:44:00,
2013-06-14 16:49:00,86.7,77.4,29.91,SE,128,7.2,15.4,74,0.00,CLR,,0.00,WeatherDisplay:10.37,2013-06-14 21:49:00,
2013-06-14 16:54:00,86.6,77.7,29.91,East,96,8.2,12.7,75,0.00,CLR,,0.00,WeatherDisplay:10.37,2013-06-14 21:54:00,
2013-06-14 16:59:00,86.5,78.0,29.91,East,83,8.5,12.7,76,0.00,CLR,,0.00,WeatherDisplay:10.37,2013-06-14 21:59:00,
2013-06-14 17:04:00,86.2,77.3,29.91,ESE,113,7.4,11.5,75,0.00,CLR,,0.00,WeatherDisplay:10.37,2013-06-14 22:04:00,
2013-06-14 17:09:00,86.0,77.9,29.91,ENE,61,7.0,11.5,77,0.00,CLR,,0.00,WeatherDisplay:10.37,2013-06-14 22:09:00,
2013-06-14 17:14:00,85.9,77.8,29.91,SE,137,8.8,15.1,77,0.00,CLR,,0.00,WeatherDisplay:10.37,2013-06-14 22:14:00,
2013-06-14 17:19:00,85.5,77.9,29.91,East,88,9.8,13.1,78,0.00,CLR,,0.00,WeatherDisplay:10.37,2013-06-14 22:19:00,
2013-06-14 17:24:00,85.4,77.8,29.91,SE,128,9.9,15.0,78,0.00,CLR,,0.00,WeatherDisplay:10.37,2013-06-14 22:24:00,
2013-06-14 17:29:00,85.3,77.7,29.90,ESE,123,6.9,14.4,78,0.00,CLR,,0.00,WeatherDisplay:10.37,2013-06-14 22:29:00,
2013-06-14 17:34:00,85.1,77.1,29.90,East,92,6.8,15.0,77,0.00,CLR,,0.00,WeatherDisplay:10.37,2013-06-14 22:34:00,
2013-06-14 17:39:00,85.1,77.8,29.90,ESE,107,7.3,13.6,79,0.00,CLR,,0.00,WeatherDisplay:10.37,2013-06-14 22:39:00,
2013-06-14 17:44:00,85.0,77.8,29.90,ESE,116,8.7,15.0,79,0.00,CLR,,0.00,WeatherDisplay:10.37,2013-06-14 22:44:00,
2013-06-14 17:49:00,85.0,78.1,29.90,SE,131,7.8,13.8,80,0.00,CLR,,0.00,WeatherDisplay:10.37,2013-06-14 22:49:00,
2013-06-14 17:54:00,85.0,78.1,29.90,ESE,112,8.0,12.7,80,0.00,CLR,,0.00,WeatherDisplay:10.37,2013-06-14 22:54:00,
2013-06-14 17:59:00,84.9,78.0,29.90,ESE,116,8.3,12.7,80,0.00,CLR,,0.00,WeatherDisplay:10.37,2013-06-14 22:59:00,
2013-06-14 18:04:00,84.9,78.0,29.90,East,89,7.9,17.3,80,0.00,CLR,,0.00,WeatherDisplay:10.37,2013-06-14 23:04:00,
2013-06-14 18:09:00,85.0,78.1,29.89,ESE,110,10.4,15.0,80,0.00,CLR,,0.00,WeatherDisplay:10.37,2013-06-14 23:09:00,
2013-06-14 18:14:00,85.2,78.3,29.89,ESE,117,11.1,16.1,80,0.00,CLR,,0.00,WeatherDisplay:10.37,2013-06-14 23:14:00,
2013-06-14 18:20:00,85.3,78.4,29.89,ENE,78,10.5,18.4,80,0.00,CLR,,0.00,WeatherDisplay:10.37,2013-06-14 23:20:00,
2013-06-14 18:25:00,85.3,78.4,29.89,ESE,120,8.7,15.0,80,0.00,CLR,,0.00,WeatherDisplay:10.37,2013-06-14 23:25:00,
2013-06-14 18:30:00,85.1,77.8,29.89,ESE,114,7.7,16.1,79,0.00,CLR,,0.00,WeatherDisplay:10.37,2013-06-14 23:30:00,
2013-06-14 18:35:00,85.0,78.1,29.89,East,79,10.2,15.0,80,0.00,CLR,,0.00,WeatherDisplay:10.37,2013-06-14 23:35:00,
2013-06-14 18:40:00,84.8,77.9,29.89,ENE,75,14.1,19.6,80,0.00,CLR,,0.00,WeatherDisplay:10.37,2013-06-14 23:40:00,
2013-06-14 18:45:00,84.9,78.0,29.89,East,93,13.7,17.9,80,0.00,CLR,,0.00,WeatherDisplay:10.37,2013-06-14 23:45:00,
2013-06-14 18:50:00,84.8,78.3,29.88,ESE,116,10.6,16.1,81,0.00,CLR,,0.00,WeatherDisplay:10.37,2013-06-14 23:50:00,
2013-06-14 18:55:00,84.7,78.6,29.88,ESE,102,9.6,15.5,82,0.00,CLR,,0.00,WeatherDisplay:10.37,2013-06-14 23:55:00,
2013-06-14 19:00:00,84.4,78.3,29.88,ESE,117,8.0,16.1,82,0.00,CLR,,0.00,WeatherDisplay:10.37,2013-06-15 00:00:00,
2013-06-14 19:05:00,84.4,78.7,29.89,ESE,121,8.8,13.4,83,0.00,CLR,,0.00,WeatherDisplay:10.37,2013-06-15 00:05:00,
2013-06-14 19:10:00,84.4,78.7,29.89,ESE,106,11.0,17.3,83,0.00,CLR,,0.00,WeatherDisplay:10.37,2013-06-15 00:10:00,
2013-06-14 19:15:00,84.3,78.6,29.89,SE,127,12.7,19.6,83,0.00,CLR,,0.00,WeatherDisplay:10.37,2013-06-15 00:15:00,
2013-06-14 19:20:00,84.3,78.6,29.89,East,90,12.8,18.4,83,0.00,CLR,,0.00,WeatherDisplay:10.37,2013-06-15 00:20:00,
2013-06-14 19:25:00,84.0,78.6,29.90,ESE,113,8.4,15.0,84,0.00,CLR,,0.00,WeatherDisplay:10.37,2013-06-15 00:25:00,
2013-06-14 19:30:00,83.9,78.5,29.90,ESE,112,11.4,15.0,84,0.00,CLR,,0.00,WeatherDisplay:10.37,2013-06-15 00:30:00,
2013-06-14 19:35:00,83.9,78.5,29.90,East,86,7.0,13.9,84,0.00,CLR,,0.00,WeatherDisplay:10.37,2013-06-15 00:35:00,
2013-06-14 19:40:00,83.7,78.3,29.90,SE,131,10.8,16.3,84,0.00,CLR,,0.00,WeatherDisplay:10.37,2013-06-15 00:40:00,
2013-06-14 19:45:00,83.7,78.7,29.90,SSE,158,9.7,16.1,85,0.00,CLR,,0.00,WeatherDisplay:10.37,2013-06-15 00:45:00,
2013-06-14 19:50:00,83.5,78.5,29.91,East,92,10.7,17.6,85,0.00,CLR,,0.00,WeatherDisplay:10.37,2013-06-15 00:50:00,
2013-06-14 19:55:00,83.5,78.9,29.90,ESE,119,8.7,17.3,86,0.00,CLR,,0.00,WeatherDisplay:10.37,2013-06-15 00:55:00,
2013-06-14 20:00:00,83.4,78.8,29.90,ESE,106,8.7,12.8,86,0.00,CLR,,0.00,WeatherDisplay:10.37,2013-06-15 01:00:00,
2013-06-14 20:10:00,83.4,78.4,29.90,SE,138,16.1,16.1,85,0.00,,,0.00,WeatherDisplay:10.37,2013-06-15 01:10:00,
2013-06-14 20:19:00,83.4,78.8,29.90,ESE,121,13.8,15.4,86,0.00,CLR,,0.00,WeatherDisplay:10.37,2013-06-15 01:19:00,
2013-06-14 20:24:00,83.3,79.0,29.90,East,95,11.1,15.9,87,0.00,CLR,,0.00,WeatherDisplay:10.37,2013-06-15 01:24:00,
2013-06-14 20:29:00,83.2,78.9,29.90,SE,141,9.3,12.7,87,0.00,CLR,,0.00,WeatherDisplay:10.37,2013-06-15 01:29:00,
2013-06-14 20:34:00,83.0,78.4,29.90,East,92,8.4,13.1,86,0.00,CLR,,0.00,WeatherDisplay:10.37,2013-06-15 01:34:00,
2013-06-14 20:39:00,82.9,78.3,29.91,ESE,112,9.2,15.0,86,0.00,CLR,,0.00,WeatherDisplay:10.37,2013-06-15 01:39:00,
2013-06-14 20:44:00,82.9,78.3,29.91,ESE,114,8.7,12.7,86,0.00,CLR,,0.00,WeatherDisplay:10.37,2013-06-15 01:44:00,
2013-06-14 20:49:00,82.9,78.3,29.91,ESE,116,10.6,15.0,86,0.00,CLR,,0.00,WeatherDisplay:10.37,2013-06-15 01:49:00,
2013-06-14 20:54:00,82.9,78.6,29.91,East,96,7.8,12.7,87,0.00,CLR,,0.00,WeatherDisplay:10.37,2013-06-15 01:54:00,
2013-06-14 20:59:00,82.9,78.3,29.91,SE,140,6.1,12.7,86,0.00,CLR,,0.00,WeatherDisplay:10.37,2013-06-15 01:59:00,
2013-06-14 21:04:00,82.8,78.2,29.91,SE,145,10.1,16.1,86,0.00,CLR,,0.00,WeatherDisplay:10.37,2013-06-15 02:04:00,
2013-06-14 21:09:00,82.7,78.1,29.91,ESE,117,7.6,12.7,86,0.00,CLR,,0.00,WeatherDisplay:10.37,2013-06-15 02:09:00,
2013-06-14 21:14:00,82.8,78.2,29.91,SE,137,9.5,13.8,86,0.00,CLR,,0.00,WeatherDisplay:10.37,2013-06-15 02:14:00,
2013-06-14 21:19:00,82.8,78.2,29.91,ESE,110,9.7,15.0,86,0.00,CLR,,0.00,WeatherDisplay:10.37,2013-06-15 02:19:00,
2013-06-14 21:24:00,82.8,78.2,29.91,ESE,110,8.8,15.0,86,0.00,CLR,,0.00,WeatherDisplay:10.37,2013-06-15 02:24:00,
2013-06-14 21:29:00,82.8,78.5,29.91,ESE,103,10.1,15.6,87,0.00,CLR,,0.00,WeatherDisplay:10.37,2013-06-15 02:29:00,
2013-06-14 21:34:00,82.7,78.1,29.91,ESE,109,6.9,12.9,86,0.00,CLR,,0.00,WeatherDisplay:10.37,2013-06-15 02:34:00,
2013-06-14 21:39:00,82.8,78.5,29.91,SE,133,7.0,13.2,87,0.00,CLR,,0.00,WeatherDisplay:10.37,2013-06-15 02:39:00,
2013-06-14 21:44:00,82.8,78.9,29.91,SE,136,8.8,16.6,88,0.00,CLR,,0.00,WeatherDisplay:10.37,2013-06-15 02:44:00,
2013-06-14 21:49:00,82.7,78.8,29.91,ESE,102,9.5,14.4,88,0.00,CLR,,0.00,WeatherDisplay:10.37,2013-06-15 02:49:00,
2013-06-14 21:54:00,82.5,78.2,29.91,SE,141,9.0,12.7,87,0.00,CLR,,0.00,WeatherDisplay:10.37,2013-06-15 02:54:00,
2013-06-14 21:59:00,82.4,78.1,29.91,SE,145,8.6,12.7,87,0.00,CLR,,0.00,WeatherDisplay:10.37,2013-06-15 02:59:00,
2013-06-14 22:04:00,82.4,77.8,29.92,SE,134,8.7,14.2,86,0.00,CLR,,0.00,WeatherDisplay:10.37,2013-06-15 03:04:00,
2013-06-14 22:09:00,82.4,77.8,29.92,SSE,152,10.4,15.0,86,0.00,CLR,,0.00,WeatherDisplay:10.37,2013-06-15 03:09:00,
2013-06-14 22:14:00,82.5,78.2,29.92,SSE,152,8.8,12.7,87,0.00,CLR,,0.00,WeatherDisplay:10.37,2013-06-15 03:14:00,
2013-06-14 22:20:00,82.5,78.2,29.93,SE,145,8.2,9.8,87,0.00,CLR,,0.00,WeatherDisplay:10.37,2013-06-15 03:20:00,
2013-06-14 22:25:00,82.4,78.1,29.93,SE,143,7.9,15.4,87,0.00,CLR,,0.00,WeatherDisplay:10.37,2013-06-15 03:25:00,
2013-06-14 22:30:00,82.5,78.2,29.93,SSE,151,9.2,13.8,87,0.00,CLR,,0.00,WeatherDisplay:10.37,2013-06-15 03:30:00,
2013-06-14 22:35:00,82.7,78.8,29.93,ESE,109,8.3,13.8,88,0.00,CLR,,0.00,WeatherDisplay:10.37,2013-06-15 03:35:00,
2013-06-14 22:40:00,82.6,78.7,29.93,ESE,106,9.7,12.7,88,0.00,CLR,,0.00,WeatherDisplay:10.37,2013-06-15 03:40:00,
2013-06-14 22:45:00,82.4,78.5,29.93,SSE,167,8.4,13.2,88,0.00,CLR,,0.00,WeatherDisplay:10.37,2013-06-15 03:45:00,
2013-06-14 22:50:00,82.6,78.7,29.93,ESE,121,7.9,11.5,88,0.00,CLR,,0.00,WeatherDisplay:10.37,2013-06-15 03:50:00,
2013-06-14 22:55:00,82.5,78.6,29.93,SE,136,8.6,10.4,88,0.00,CLR,,0.00,WeatherDisplay:10.37,2013-06-15 03:55:00,
2013-06-14 23:00:00,82.5,78.6,29.93,SSE,154,9.3,13.5,88,0.00,CLR,,0.00,WeatherDisplay:10.37,2013-06-15 04:00:00,
2013-06-14 23:01:00,82.5,78.6,29.93,SSE,154,10.4,13.8,88,0.00,CLR,,0.00,WeatherDisplay:10.37,2013-06-15 04:01:00,
2013-06-14 23:02:00,82.6,78.7,29.93,ESE,121,8.2,14.0,88,0.00,CLR,,0.00,WeatherDisplay:10.37,2013-06-15 04:02:00,
2013-06-14 23:03:00,82.6,78.7,29.93,SSE,148,9.1,14.0,88,0.00,CLR,,0.00,WeatherDisplay:10.37,2013-06-15 04:03:00,
2013-06-14 23:08:00,82.6,78.7,29.93,SE,138,8.6,12.7,88,0.00,CLR,,0.00,WeatherDisplay:10.37,2013-06-15 04:08:00,
2013-06-14 23:14:00,82.5,78.6,29.93,SSE,157,11.5,12.7,88,0.00,CLR,,0.00,WeatherDisplay:10.37,2013-06-15 04:14:00,
2013-06-14 23:19:00,82.5,78.6,29.94,SE,144,9.1,14.4,88,0.00,CLR,,0.00,WeatherDisplay:10.37,2013-06-15 04:19:00,
2013-06-14 23:24:00,82.5,78.9,29.93,SSE,152,8.8,15.2,89,0.00,CLR,,0.00,WeatherDisplay:10.37,2013-06-15 04:24:00,
2013-06-14 23:29:00,82.5,78.9,29.93,SE,133,7.8,11.4,89,0.00,CLR,,0.00,WeatherDisplay:10.37,2013-06-15 04:29:00,
2013-06-14 23:34:00,82.6,79.0,29.94,SE,144,9.7,15.0,89,0.00,CLR,,0.00,WeatherDisplay:10.37,2013-06-15 04:34:00,
2013-06-14 23:39:00,82.6,79.0,29.94,SE,138,5.8,10.4,89,0.00,CLR,,0.00,WeatherDisplay:10.37,2013-06-15 04:39:00,
2013-06-14 23:44:00,82.5,78.6,29.94,SSE,157,10.9,15.0,88,0.00,CLR,,0.00,WeatherDisplay:10.37,2013-06-15 04:44:00,
2013-06-14 23:49:00,82.4,78.5,29.94,ESE,121,9.1,13.8,88,0.00,CLR,,0.00,WeatherDisplay:10.37,2013-06-15 04:49:00,
2013-06-14 23:54:00,82.6,78.7,29.94,SE,144,8.4,12.7,88,0.00,CLR,,0.00,WeatherDisplay:10.37,2013-06-15 04:54:00,
2013-06-14 23:59:00,82.5,78.6,29.94,SE,137,9.0,14.2,88,0.00,CLR,,0.00,WeatherDisplay:10.37,2013-06-15 04:59:00,